[[{"header":{"parameterUnit":"m.s-1","parameterCategory":1,"la1":30.2991,"la2":30.254,"lo1":-89.0895,"lo2":-89.0444,"dy":0.0017,"dx":0.0017,"nx":28,"ny":28,"refTime":"2024-03-09T09:00:00:Z","depth":0,"parameterNumber":2,"parameterNumberName":"U-component_of_WINDS"},"data":[0,0,0,0,0,0,0,0,0,0,0,0,0,0,0,0,0,0,0,0,0,0,0,0,0,0,0,0,0,0,0,0,0,0,0,0,0,0,0,0,0,0,0,0,0,0,0,0,0,0,0,0,0,0,0,0,0,0,2.5274,2.5275,0,2.5298,2.5299,2.5299,2.5275,2.5274,2.5273,2.5272,2.5297,2.5299,2.53,0,0,0,0,0,0,0,0,0,0,0,0,0,2.5208,2.521,2.5274,2.5275,2.5275,2.5298,2.5299,2.5299,2.5275,2.5274,2.5273,2.5272,2.5297,2.5299,2.53,0,0,0,0,0,0,0,0,0,0,0,0,0,2.5235,2.521,2.5274,2.5266,2.5265,2.5298,2.5299,2.5299,2.5276,2.5274,2.5273,2.5271,2.5296,2.5298,2.5301,2.5343,0,0,2.5308,2.5309,0,0,0,0,0,0,0,0,2.5234,2.5238,2.5267,2.5267,2.5266,2.5282,2.5285,2.5314,2.5276,2.5272,2.5272,2.5271,2.5294,2.5296,2.5304,2.5344,2.5345,2.5308,2.5309,2.531,2.5311,0,0,0,0,0,0,0,2.5232,2.5236,2.5284,2.5267,2.5267,2.5261,2.5263,2.529,2.529,2.5272,2.527,2.5274,2.5293,2.5301,2.5304,2.5346,2.5308,2.531,2.5311,2.5312,2.5423,2.5425,0,0,0,0,0,0,2.5231,2.5235,2.5283,2.5285,2.5246,2.5263,2.5266,2.5279,2.529,2.529,2.5275,2.5272,2.5298,2.5301,2.5305,2.5356,2.531,2.5313,2.5314,2.5422,2.5424,2.5425,0,0,0,0,0,0,2.5229,2.5235,2.5282,2.5259,2.5265,2.5266,2.528,2.528,2.5288,2.5292,2.5292,2.5283,2.5297,2.5302,2.5334,2.5356,2.5314,2.5316,2.542,2.5422,2.5425,2.5458,0,0,0,0,0,0,2.5228,2.5235,2.5251,2.526,2.5266,2.5311,2.5282,2.5281,2.5292,2.5289,2.53,2.53,2.5296,2.5331,2.5336,2.5359,2.5317,2.5418,2.5421,2.5424,2.5455,2.5461,2.5466,0,0,0,0,0,2.5225,2.5259,2.5252,2.5258,2.5286,2.5312,2.5316,2.5311,2.5294,2.531,2.5313,2.53,2.5353,2.5334,2.534,2.5364,2.5417,2.542,2.5424,2.5452,2.546,2.5466,0,0,0,0,0,0,2.5253,2.526,2.5252,2.529,2.5301,2.5308,2.5328,2.5319,2.5334,2.5331,2.5324,2.5327,2.5361,2.5366,2.5345,2.5406,2.5382,2.5387,2.5402,2.5409,2.5415,2.5413,2.5319,0,0,0,0,0,2.5263,2.5283,2.5289,2.5322,2.5327,2.5327,2.5338,2.5333,2.5344,2.5349,2.5353,2.5365,2.5384,2.5397,2.5414,2.5455,2.5458,2.5474,2.548,2.5485,2.5489,2.5512,2.552,2.5437,2.5437,2.5437,0,0,2.5285,2.5291,2.5305,2.5327,2.5335,2.5357,2.5331,2.5355,2.5371,2.5352,2.5383,2.5387,2.5399,2.5436,2.5453,2.5441,2.5513,2.549,2.5493,2.5495,2.5517,2.5525,2.5532,2.5439,2.5439,2.5439,0,0,2.5336,2.5342,2.5371,2.5379,2.5391,2.5391,2.5398,2.5407,2.5409,2.544,2.5427,2.5446,2.5479,2.5488,2.5497,2.5552,2.5541,2.5558,2.5589,2.5611,2.5618,2.5623,2.5644,2.5651,2.5563,2.5563,2.5563,0,2.5361,2.5393,2.5387,2.5412,2.5422,2.5406,2.5435,2.5444,2.5461,2.5469,2.5456,2.5497,2.5504,2.5544,2.5557,2.5565,2.5573,2.5557,2.5617,2.5623,2.5628,2.5647,2.5655,2.5565,2.5564,2.5564,2.5564,0,2.5424,2.5446,2.5468,2.5485,2.5498,2.5525,2.5523,2.5537,2.5531,2.5533,2.5565,2.5573,2.5592,2.5601,2.5595,2.564,2.5632,2.5618,2.5594,2.5638,2.5656,2.5664,2.5568,2.5567,2.5566,2.5566,0,0,2.5493,2.5507,2.5515,2.5523,2.5535,2.5552,2.5579,2.5598,2.561,2.5623,2.5645,2.5674,2.5661,2.5671,2.5667,2.5686,2.573,2.567,2.567,2.5681,2.5781,2.5792,2.58,2.5723,2.5724,2.5725,2.578,0,2.5544,2.559,2.5585,2.5629,2.565,2.5636,2.5659,2.5669,2.5671,2.5689,2.5691,2.5712,2.5693,2.5699,2.5718,2.5721,2.575,2.5717,2.5744,2.5745,2.5742,2.5809,2.5821,2.5872,2.5787,2.5788,2.5789,0,2.5611,2.5626,2.5672,2.5682,2.569,2.5711,2.5729,2.5746,2.5758,2.5758,2.577,2.5762,2.5789,2.5764,2.5801,2.5779,2.579,2.5793,2.5795,2.5797,2.577,2.5815,2.5888,2.5896,2.58,2.5799,2.5798,0,2.5657,2.5689,2.5721,2.5728,2.574,2.5755,2.5761,2.5771,2.5783,2.5799,2.5806,2.5825,2.5835,2.5849,2.5847,2.5829,2.5885,2.586,2.5886,2.5886,2.5899,2.5898,2.5976,2.5905,2.5905,2.5905,2.5905,0,2.5715,2.5744,2.5742,2.5761,2.5793,2.5788,2.582,2.5824,2.5833,2.5854,2.5842,2.5861,2.5856,2.5876,2.5874,2.5906,2.591,2.5911,2.591,2.5913,2.5913,2.592,2.5916,2.5907,2.5907,2.5906,2.5906,0,2.5773,2.5772,2.5806,2.5815,2.5818,2.5841,2.5849,2.5868,2.5869,2.5895,2.59,2.5902,2.5924,2.5923,2.5948,2.5947,2.5986,2.5981,2.5982,2.5981,2.6008,2.6006,2.6094,2.6105,2.6026,2.6027,2.6028,0,2.581,2.5832,2.5844,2.5857,2.5863,2.5884,2.5897,2.5892,2.5905,2.5921,2.5938,2.5959,2.5976,2.6012,2.6016,2.6035,2.603,2.606,2.6033,2.6035,2.6032,2.6031,2.6033,2.6065,2.6066,2.6067,2.6067,0,2.5878,2.5876,2.5894,2.5913,2.5928,2.5942,2.5955,2.5966,2.5963,2.5979,2.6002,2.6015,2.6041,2.6062,2.6081,2.6087,2.6077,2.6076,2.6083,2.6086,2.6086,2.6087,2.5997,2.6074,2.6073,2.6073,2.6072,2.6072,2.5927,2.5946,2.5957,2.5978,2.5987,2.6,2.6018,2.6021,2.604,2.6061,2.6057,2.6083,2.6094,2.6118,2.6126,2.6146,2.6136,2.6146,2.6149,2.6152,2.6155,2.6082,2.615,2.6149,2.6149,2.6149,2.6149,0,2.5994,2.6,2.602,2.6038,2.6055,2.6044,2.6058,2.6073,2.6095,2.6107,2.6124,2.615,2.6171,2.6177,2.6197,2.6212,2.6208,2.6217,2.6216,2.6218,2.6163,2.6155,2.622,2.622,2.622,2.622,2.622,2.622,2.6031,2.6063,2.6063,2.6099,2.6106,2.6131,2.614,2.6152,2.6161,2.6191,2.6208,2.6212,2.6221,2.6242,2.6261,2.6262,2.627,2.6281,2.6281,2.6229,2.6222,2.6215,2.6208,2.6283,2.6283,2.6334,2.6335,2.6335]},{"header":{"parameterUnit":"m.s-1","parameterCategory":1,"la1":30.2991,"la2":30.254,"lo1":-89.0895,"lo2":-89.0444,"dy":0.0017,"dx":0.0017,"nx":28,"ny":28,"refTime":"2024-03-09T09:00:00:Z","depth":0,"parameterNumber":3,"parameterNumberName":"V-component_of_WINDS"},"data":[0,0,0,0,0,0,0,0,0,0,0,0,0,0,0,0,0,0,0,0,0,0,0,0,0,0,0,0,0,0,0,0,0,0,0,0,0,0,0,0,0,0,0,0,0,0,0,0,0,0,0,0,0,0,0,0,0,0,-0.3513,-0.3511,0,-0.332,-0.3318,-0.3316,-0.3253,-0.3254,-0.3255,-0.3256,-0.305,-0.3044,-0.3038,0,0,0,0,0,0,0,0,0,0,0,0,0,-0.3822,-0.3817,-0.3513,-0.3511,-0.3509,-0.332,-0.3318,-0.3315,-0.3253,-0.3254,-0.3255,-0.3256,-0.3053,-0.3045,-0.3038,0,0,0,0,0,0,0,0,0,0,0,0,0,-0.3665,-0.3815,-0.3514,-0.3455,-0.3448,-0.3321,-0.3318,-0.3314,-0.3253,-0.3254,-0.3255,-0.3257,-0.3055,-0.3046,-0.3037,-0.2952,0,0,-0.3008,-0.3004,0,0,0,0,0,0,0,0,-0.3674,-0.3653,-0.3466,-0.3459,-0.3451,-0.3312,-0.3351,-0.3193,-0.3252,-0.3327,-0.3256,-0.3257,-0.3136,-0.312,-0.3081,-0.2942,-0.2933,-0.3007,-0.3001,-0.2997,-0.2995,0,0,0,0,0,0,0,-0.3685,-0.3661,-0.3437,-0.3463,-0.3454,-0.3436,-0.3415,-0.3321,-0.3226,-0.332,-0.3315,-0.3294,-0.3132,-0.309,-0.3075,-0.293,-0.3007,-0.2999,-0.2993,-0.2989,-0.2713,-0.2712,0,0,0,0,0,0,-0.3706,-0.3671,-0.3443,-0.3431,-0.3568,-0.343,-0.3406,-0.3355,-0.3227,-0.3209,-0.3293,-0.3291,-0.3105,-0.3086,-0.3068,-0.2961,-0.2997,-0.2988,-0.2983,-0.2715,-0.2713,-0.2711,0,0,0,0,0,0,-0.3713,-0.3687,-0.3451,-0.3549,-0.3518,-0.3423,-0.3366,-0.3351,-0.3309,-0.3206,-0.3188,-0.3268,-0.3106,-0.3081,-0.2982,-0.2953,-0.2984,-0.2976,-0.2717,-0.2714,-0.2712,-0.2746,0,0,0,0,0,0,-0.3722,-0.369,-0.3658,-0.3549,-0.3513,-0.337,-0.3364,-0.3346,-0.3293,-0.329,-0.3178,-0.316,-0.3105,-0.2996,-0.2973,-0.294,-0.2968,-0.2719,-0.2716,-0.2713,-0.2747,-0.2744,-0.2743,0,0,0,0,0,-0.3734,-0.3673,-0.3656,-0.3629,-0.3472,-0.3368,-0.3347,-0.3286,-0.3291,-0.3258,-0.3192,-0.3164,-0.296,-0.2987,-0.2959,-0.2924,-0.2721,-0.2717,-0.2713,-0.2747,-0.2745,-0.2743,0,0,0,0,0,0,-0.3778,-0.3658,-0.3638,-0.3541,-0.3466,-0.3358,-0.3314,-0.3286,-0.3205,-0.3205,-0.3131,-0.3106,-0.3012,-0.2958,-0.299,-0.2835,-0.2839,-0.2829,-0.2874,-0.2871,-0.2869,-0.2884,-0.296,0,0,0,0,0,-0.3777,-0.3705,-0.3603,-0.3527,-0.3491,-0.3409,-0.3361,-0.3322,-0.3239,-0.3206,-0.3133,-0.3053,-0.2971,-0.2918,-0.2836,-0.2739,-0.2713,-0.2701,-0.2699,-0.2698,-0.269,-0.2635,-0.2628,-0.2699,-0.2699,-0.2699,0,0,-0.3772,-0.3698,-0.3657,-0.3534,-0.3471,-0.3397,-0.3382,-0.3304,-0.3247,-0.3193,-0.3096,-0.304,-0.2945,-0.2847,-0.28,-0.2798,-0.2665,-0.2693,-0.2693,-0.2686,-0.263,-0.2624,-0.2618,-0.2696,-0.2697,-0.2697,0,0,-0.3727,-0.3664,-0.3595,-0.3533,-0.3438,-0.3385,-0.3368,-0.3265,-0.3226,-0.3128,-0.3087,-0.3017,-0.2877,-0.2812,-0.276,-0.2692,-0.2663,-0.2667,-0.2657,-0.2603,-0.2598,-0.2592,-0.2568,-0.256,-0.266,-0.266,-0.266,0,-0.3733,-0.3622,-0.3562,-0.3486,-0.3433,-0.3384,-0.3312,-0.3254,-0.3137,-0.3101,-0.3102,-0.2926,-0.2858,-0.2744,-0.2728,-0.2688,-0.2665,-0.2679,-0.2604,-0.2598,-0.2592,-0.2568,-0.2559,-0.2661,-0.2661,-0.2661,-0.2661,0,-0.3634,-0.3557,-0.3512,-0.3404,-0.3345,-0.3272,-0.3199,-0.3147,-0.3112,-0.3058,-0.2959,-0.2877,-0.2778,-0.2748,-0.2712,-0.2628,-0.2631,-0.2619,-0.2621,-0.2588,-0.2564,-0.2554,-0.2663,-0.2663,-0.2662,-0.2662,0,0,-0.361,-0.3471,-0.3455,-0.3406,-0.3299,-0.3237,-0.3161,-0.3068,-0.3025,-0.2946,-0.2879,-0.2763,-0.2752,-0.2693,-0.265,-0.2603,-0.2555,-0.2597,-0.2593,-0.2592,-0.2457,-0.2467,-0.2457,-0.2536,-0.2534,-0.2532,-0.2465,0,-0.3551,-0.3416,-0.336,-0.325,-0.3178,-0.3131,-0.3065,-0.2991,-0.2939,-0.2869,-0.2809,-0.2728,-0.272,-0.2684,-0.2636,-0.2571,-0.2527,-0.2575,-0.2471,-0.2468,-0.2497,-0.2445,-0.2454,-0.2395,-0.2455,-0.2454,-0.2453,0,-0.3463,-0.3387,-0.3271,-0.3175,-0.3142,-0.3084,-0.2994,-0.2928,-0.2843,-0.2808,-0.2745,-0.2704,-0.2621,-0.2629,-0.2513,-0.2548,-0.2502,-0.2463,-0.246,-0.2447,-0.2458,-0.243,-0.2374,-0.2366,-0.2437,-0.2438,-0.2439,0,-0.3458,-0.3326,-0.3239,-0.3198,-0.3083,-0.3044,-0.2993,-0.291,-0.2858,-0.2779,-0.2744,-0.2655,-0.2606,-0.2538,-0.2474,-0.2486,-0.2363,-0.2367,-0.2331,-0.2333,-0.2306,-0.2309,-0.2242,-0.2278,-0.2278,-0.2278,-0.2279,0,-0.3397,-0.3328,-0.3236,-0.3182,-0.3103,-0.3039,-0.2962,-0.2908,-0.2834,-0.2769,-0.2722,-0.2661,-0.2581,-0.2509,-0.2458,-0.2369,-0.2347,-0.2316,-0.2303,-0.232,-0.2324,-0.2288,-0.229,-0.2276,-0.2276,-0.2277,-0.2277,0,-0.3377,-0.3312,-0.3215,-0.3115,-0.3089,-0.3035,-0.2948,-0.2893,-0.284,-0.2757,-0.2734,-0.2649,-0.2562,-0.2492,-0.2377,-0.2343,-0.225,-0.2236,-0.228,-0.2273,-0.2241,-0.2245,-0.2149,-0.2133,-0.2181,-0.218,-0.218,0,-0.3342,-0.3288,-0.3184,-0.3138,-0.3089,-0.3015,-0.2962,-0.2897,-0.2844,-0.2744,-0.2701,-0.2612,-0.2537,-0.24,-0.2326,-0.2239,-0.2221,-0.2194,-0.2208,-0.2227,-0.2221,-0.2225,-0.2219,-0.2192,-0.2192,-0.2192,-0.2192,0,-0.3288,-0.326,-0.3187,-0.3103,-0.3042,-0.2972,-0.2901,-0.2865,-0.2786,-0.2728,-0.2641,-0.2583,-0.2468,-0.2379,-0.2284,-0.2229,-0.2197,-0.2189,-0.2175,-0.2192,-0.2219,-0.2204,-0.2276,-0.219,-0.2191,-0.2191,-0.2191,-0.2191,-0.3259,-0.321,-0.3129,-0.3049,-0.2989,-0.2924,-0.2869,-0.281,-0.2736,-0.2639,-0.2604,-0.2514,-0.2431,-0.23,-0.2246,-0.2173,-0.217,-0.2151,-0.2146,-0.2142,-0.2144,-0.2232,-0.2155,-0.2155,-0.2155,-0.2155,-0.2155,0,-0.3203,-0.3149,-0.3077,-0.298,-0.2917,-0.2896,-0.2816,-0.2764,-0.2686,-0.2612,-0.254,-0.2439,-0.2354,-0.2274,-0.2184,-0.2141,-0.2124,-0.2119,-0.2121,-0.2109,-0.2152,-0.2173,-0.2135,-0.2135,-0.2135,-0.2135,-0.2135,-0.2135,-0.3166,-0.3081,-0.3043,-0.2927,-0.2873,-0.2787,-0.2743,-0.2682,-0.2623,-0.2514,-0.2443,-0.2393,-0.2317,-0.2221,-0.2141,-0.2119,-0.2088,-0.2088,-0.2062,-0.2104,-0.2106,-0.2109,-0.2128,-0.2081,-0.2081,-0.2025,-0.2025,-0.2025]}]]